ZACUBE-2 (43907 NORAD) Tracking and Keplerian Element Data

This shows tracking and keplerian element data for the satellite.

Feedback or suggestion? Click here.




ElementValue
Catalog43907
NameZACUBE-2
Epoch Orbit2240
Epoch Day143.15276971
Epoch Year2019
RAAN49.1155
Inclination97.2921
Eccentricity0.0023539
Argument of Perigee85.3449
Mean Anonmoly275.0476
Mean Motion15.2415827
Decay Rate4.08E-06
L11 43907U 18111AH 19143.15276971 .00000408 00000-0 19503-4 0 9995
L22 43907 97.2921 49.1155 0023539 85.3449 275.0476 15.24158270 22409

Live tracking and technical data element details for ZACUBE-2 (NORAD 43907). ZACUBE-2 can be tracked NOW for your location showing map with azimuth and elevation plus other details from your city location.

Track the satellite on the map from your city or location and see movement details for azimuth, elevation, latitude, longitude, range, height, and movement on the map or in text.







IsCatalogInMostPopularTable: catalog: 43907, numindb: 97
Update: records affected: 1



GetName: 43907 ZACUBE-2

Hit Count: updated at: Thu, 23 May 2019 15:06:11 GMT